Location: Passau
(48.5830°N, 13.4830°E)
Time: 01:32:19
(UTC+02:00)

Transit 2A - Pass Details

Date: 10 August 2021
Orbit: 595 x 964 km, 66.7° (Epoch: 17 September)

Event Time Altitude Azimuth Distance (km) Brightness Sun altitude
Exits shadow 03:51:36 - 153° (SSE) 2,595 8.5 -16.7°
Reaches altitude 10° 03:54:12 10° 129° (SE) 1,986 8.2 -16.4°
Maximum altitude 03:56:04 12° 104° (ESE) 1,855 8.3 -16.2°
Drops below altitude 10° 03:57:59 10° 79° (E) 2,054 9.0 -16.0°
Sets 04:01:40 0° 51° (NE) 3,050 10.9 -15.6°
